^^

METAR Μετεωρολογικών Σταθμών

Βόρεια Ελλάδα


 Τι είναι το METAR ??? 

Πρώτος είναι ο πλησιέστερος Μετεωρολογικός Σταθμός (Κάτω Πυλαία 0χλμ)
και τέλος ο πιο απομακρυσμένος (Ορεστιάδα 316χλμ).
Επίσης μερικές αναφορές, παρουσιάζουν λιγότερα στοιχεία γιατί
οι αρχικές είναι ελλιπείς ή έχουν λάθος μορφοποίηση.
Πηγαίνετε στις Αναφορές METAR από Αεροδρόμια )  
Επιλέξτε Τμήμα:  Βόρεια Ελλάδα  -  Κεντρική, Δυτική & Νότια Ελλάδα  -  Νησιά Αγαίου & Κρήτη
Αλφαβητική Λίστα Γρήγορης Μετάβασης στούς 72 Μετεωρολογικούς Σταθμούς
Σύμφωνα με την διοικητική διαίρεση κατά το «Πρόγραμμα Καλλικράτης»
Ανατολική Μακεδονία και Θράκη  (Δράμα: Δράμα  Νευροκόπι  Φαλακρό-Χιον/κό Κέντρο  Φαλακρό-Κορυφή Καρτάλκα)
(Έβρος: Αλεξανδρούπολη  Διδυμότειχο  Μεταξάδες  Ορεστιάδα  Σαμοθράκη) (Καβάλα: Βουνοχώρι  Καβάλα  Παλαιοχώρι) (Ξάνθη: Ξάνθη)
(Ροδόπη: Κομοτηνή)
Δυτική Μακεδονία  (Γρεβενά: Βασιλίτσα  Γρεβενά  Σαμαρίνα) (Καστοριά: Γράμος  Καστοριά  Κλεισούρα) (Κοζάνη: Νότιο Πεδίο-ΔΕΗ  Πτολεμαΐδα) (Φλώρινα: Αμύνταιο-ΔΕΗ  Βαρικό  Φλώρινα)
Θεσσαλία  (Καρδίτσα: Καρδίτσα  Καστανιά) (Λάρισσα: Λάρισσα) (Μαγνησία: Βόλος  Βόλος-Κέντρο  Ζαγορά  Πορταριά  Πτελεός  Χάνια)
(Σποράδες: Αλόννησος  Σκιάθος  Σκόπελος) (Τρίκαλα: Καλαμπάκα  Περτούλι)
Κεντρική Μακεδονία  (Ημαθία: Βέροια  Νάουσα  3-5 Πηγάδια-Χιον/κό Κέντρο  Σέλι-Χιον/κό Κέντρο) (Θεσσαλονίκη: Ασπροβάλτα  Επταπύργιο  Ιστορικό Κέντρο  Ιωνία  Καλαμαριά  Καρδία  Κάτω Πυλαία  Κάτω Τούμπα  Λαγκαδάς  Νέα Κρήνη  Πυλαία  Τρίλοφος  Φίλυρο  Χορτιάτης  Ωραιόκαστρο) (Κιλκίς: Κιλκίς) (Πέλλα: Αριδαία  Καϊμάκτσαλαν-Χιον/κό Κέντρο) (Πιερία: Δίον  Μακρύγιαλος) (Σέρρες: Κερκίνη  Λαϊλιάς-Καταφύγιο  Πρώτη  Σέρρες) (Χαλκιδική: Κασσάνδρεια  Νέα Μουδανιά  Πολύγυρος  Στρατώνι) (Χαλκιδική-Αγιον Όρος: Βατοπέδι-Μονή)
(Ι.Μ.Σ.)Ιδιωτικός Μετεωρολογικός Σταθμός - (Ε.Α.Α.)Εθνικό Αστεροσκοπείο Αθηνών - (S.R.F.)Snow Report Forum
(Ι.Μ.Σ.)  Κάτω Πυλαία  (Σταθμός:1036)
Πυλαία Χορτιάτης - Θεσσαλονίκη - Κ. Μακεδονία
Γ.Πλάτ: 40.57 - Γ.Μήκ: 22.97 - Υψόμ: 21μ

Vouhead Weather
Ενημερώθηκε: 10/12/2018 21:48
Νεφοσκεπής
Νεφοσκεπής
 Άνεμος από ΒΔ
Άνεμος: ΒΔ 7 χΑω
Θερμοκρασία: 9°C
Ψυχρότητα Ανέμου: 8°C
Σημ. Δρόσου: 4°C
Υγρασία: 71%
Βαρόμετρο: 1010 hPa
Σύννεφα: Νεφοσκεπής
Ορατότητα: 9 χλμ
Ανάλυση νέφωσης: Νεφοσκεπής 640μ
2018/12/10 19:48 1036 101948Z 31504KT 9000 OVC021 09/04 Q1010
(Ι.Μ.Σ.)  Νέα Κρήνη  (Σταθμός:1272)
Καλαμαριά - Θεσσαλονίκη - Κ. Μακεδονία
Γ.Πλάτ: 40.57 - Γ.Μήκ: 22.96 - Υψόμ: 17μ
Απόσταση από το Vouhead Weather: (ΔΒΔ) 1,5χλμ
Ενημερώθηκε: 22/10/2018 19:34
ΜΗ ΠΡΟΣΦΑΤΟ METAR
Μερικώς νεφελώδης
Μερικώς νεφελώδης
 Άνεμος από ΒΔ
Άνεμος: ΒΔ 2 χΑω
Θερμοκρασία: 17°C
Σημ. Δρόσου: 13°C
Υγρασία: 77%
Βαρόμετρο: 1019 hPa
Σύννεφα: Μερικώς νεφελώδης
Ορατότητα: 8 χλμ
Ανάλυση νέφωσης: Μερικώς νεφελώδης 488μ
2018/10/22 16:34 1272 221634Z 31501KT 8000 SCT016 17/13 Q1019
 
(Ι.Μ.Σ.)  Καλαμαριά  (Σταθμός:1034)
Καλαμαριά - Θεσσαλονίκη - Κ. Μακεδονία
Γ.Πλάτ: 40.58 - Γ.Μήκ: 22.96 - Υψόμ: 60μ
Απόσταση από το Vouhead Weather: (ΒΒΔ) 2χλμ
Ενημερώθηκε: 10/12/2018 21:04
Μερικώς νεφελώδης
Μερικώς νεφελώδης
 Άνεμος από ΒΔ
Άνεμος: ΒΔ 7 χΑω
Θερμοκρασία: 9°C
Ψυχρότητα Ανέμου: 8°C
Σημ. Δρόσου: 4°C
Υγρασία: 71%
Βαρόμετρο: 1009 hPa
Σύννεφα: Μερικώς νεφελώδης
Ορατότητα: 9 χλμ
Ανάλυση νέφωσης: Μερικώς νεφελώδης 610μ
2018/12/10 19:04 1034 101904Z 31504KT 9000 SCT020 09/04 Q1009
(Ι.Μ.Σ.)  Πυλαία  (Σταθμός:1124)
Πυλαία Χορτιάτης - Θεσσαλονίκη - Κ. Μακεδονία
Γ.Πλάτ: 40.60 - Γ.Μήκ: 22.98 - Υψόμ: 145μ
Απόσταση από το Vouhead Weather: (ΒΒΑ) 4χλμ
Ενημερώθηκε: 27/10/2018 22:04
ΜΗ ΠΡΟΣΦΑΤΟ METAR
Αίθριος
Αίθριος
 Άνεμος από ΒΑ
Άνεμος: ΒΑ 2 χΑω
Θερμοκρασία: 15°C
Σημ. Δρόσου: 11°C
Υγρασία: 77%
Βαρόμετρο: 1034 hPa
Σύννεφα: Αίθριος
Ορατότητα: 8 χλμ
2018/10/27 19:04 1124 271904Z 04501KT 8000 SKC 15/11 Q1034
 
(Ι.Μ.Σ.)  Κάτω Τούμπα  (Σταθμός:1242)
Θεσσαλονίκη - Θεσσαλονίκη - Κ. Μακεδονία
Γ.Πλάτ: 40.61 - Γ.Μήκ: 22.97 - Υψόμ: 60μ
Απόσταση από το Vouhead Weather: (Β) 5χλμ
Ενημερώθηκε: 01/09/2015 00:05
ΜΗ ΠΡΟΣΦΑΤΟ METAR
Αίθριος
Αίθριος
 Άνεμος από ΑΒΑ
Άνεμος: ΑΒΑ 4 χΑω
Θερμοκρασία: 32°C
Σημ. Δρόσου: 16°C
Υγρασία: 38%
Βαρόμετρο: 1016 hPa
Σύννεφα: Αίθριος
Ορατότητα: 10 χλμ
2015/08/31 21:05 1242 312105Z 06702KT 9999 SKC 32/16 Q1016
(Ι.Μ.Σ.)  Ιστορικό Κέντρο  (Σταθμός:1031)
Θεσσαλονίκη - Θεσσαλονίκη - Κ. Μακεδονία
Γ.Πλάτ: 40.63 - Γ.Μήκ: 22.95 - Υψόμ: 34μ
Απόσταση από το Vouhead Weather: (ΒΒΔ) 7χλμ
Ενημερώθηκε: 10/12/2018 21:48
Μερικώς νεφελώδης
Μερικώς νεφελώδης
 Άνεμος από Β
Άνεμος: Β 11 χΑω
Θερμοκρασία: 9°C
Ψυχρότητα Ανέμου: 7°C
Σημ. Δρόσου: 3°C
Υγρασία: 66%
Βαρόμετρο: 1009 hPa
Σύννεφα: Μερικώς νεφελώδης
Ορατότητα: 10 χλμ
Ανάλυση νέφωσης: Μερικώς νεφελώδης 701μ
2018/12/10 19:48 1031 101948Z 36006KT 9999 SCT023 09/03 Q1009
 
(Ι.Μ.Σ.)  Επταπύργιο  (Σταθμός:1032)
Νεάπολη Συκιές - Θεσσαλονίκη - Κ. Μακεδονία
Γ.Πλάτ: 40.64 - Γ.Μήκ: 22.96 - Υψόμ: 200μ
Απόσταση από το Vouhead Weather: (ΒΒΔ) 8χλμ
Ενημερώθηκε: 10/12/2018 21:48
Μερικώς νεφελώδης
Μερικώς νεφελώδης
 Άνεμος από ΒΒΔ
Άνεμος: ΒΒΔ 13 χΑω
Θερμοκρασία: 7°C
Ψυχρότητα Ανέμου: 5°C
Σημ. Δρόσου: 3°C
Υγρασία: 76%
Βαρόμετρο: 1013 hPa
Σύννεφα: Μερικώς νεφελώδης
Ορατότητα: 9 χλμ
Ανάλυση νέφωσης: Μερικώς νεφελώδης 549μ
2018/12/10 19:48 1032 101948Z 33707KT 9000 SCT018 07/03 Q1013
(Ι.Μ.Σ.)  Καρδία  (Σταθμός:1321)
Θέρμη - Θεσσαλονίκη - Κ. Μακεδονία
Γ.Πλάτ: 40.47 - Γ.Μήκ: 22.99 - Υψόμ: 180μ
Απόσταση από το Vouhead Weather: (ΝΝΑ) 11χλμ
Ενημερώθηκε: 10/12/2018 21:49
Διάσπαρτα νέφη
Διάσπαρτα νέφη
 Άνεμος από calm
Άνεμος: Απνοια
Θερμοκρασία: 7°C
Σημ. Δρόσου: 1°C
Υγρασία: 66%
Βαρόμετρο: 1010 hPa
Σύννεφα: Διάσπαρτα νέφη
Ορατότητα: 10 χλμ
Ανάλυση νέφωσης: Διάσπαρτα νέφη 701μ
2018/12/10 19:49 1321 101949Z 00000KT 9999 FEW023 07/01 Q1010
 
(Ι.Μ.Σ.)  Τρίλοφος  (Σταθμός:1315)
Θέρμη - Θεσσαλονίκη - Κ. Μακεδονία
Γ.Πλάτ: 40.46 - Γ.Μήκ: 22.97 - Υψόμ: 185μ
Απόσταση από το Vouhead Weather: (Ν) 11χλμ
Ενημερώθηκε: 08/02/2016 23:20
ΜΗ ΠΡΟΣΦΑΤΟ METAR
Μερικώς νεφελώδης
Μερικώς νεφελώδης
 Άνεμος από Α
Άνεμος: Α 7 χΑω
Θερμοκρασία: 10°C
Ψυχρότητα Ανέμου: 9°C
Σημ. Δρόσου: 6°C
Υγρασία: 76%
Βαρόμετρο: 1026 hPa
Σύννεφα: Μερικώς νεφελώδης
Ορατότητα: 9 χλμ
Ανάλυση νέφωσης: Μερικώς νεφελώδης 518μ
2016/02/08 21:20 1315 082120Z 09004KT 9000 SCT017 10/06 Q1026
(S.R.F.)  Χορτιάτης  (Σταθμός:1096)
Πυλαία Χορτιάτης - Θεσσαλονίκη - Κ. Μακεδονία
Γ.Πλάτ: 40.62 - Γ.Μήκ: 23.07 - Υψόμ: 570μ
Απόσταση από το Vouhead Weather: (ΑΒΑ) 12χλμ
Ενημερώθηκε: 05/03/2018 10:34
ΜΗ ΠΡΟΣΦΑΤΟ METAR
Νεφοσκεπής
Νεφοσκεπής
 Άνεμος από calm
Άνεμος: Απνοια
Θερμοκρασία: 7°C
Σημ. Δρόσου: 6°C
Υγρασία: 93%
Σύννεφα: Νεφοσκεπής
Ορατότητα: 6 χλμ
Ανάλυση νέφωσης: Νεφοσκεπής 914μ
2018/03/05 08:34 1096 050834Z 00000KT 6000 OVC030 07/06 Q00
 
(Ι.Μ.Σ.)  Ιωνία  (Σταθμός:1033)
Δέλτα - Θεσσαλονίκη - Κ. Μακεδονία
Γ.Πλάτ: 40.66 - Γ.Μήκ: 22.88 - Υψόμ: 32μ
Απόσταση από το Vouhead Weather: (ΒΒΔ) 13χλμ
Ενημερώθηκε: 28/09/2018 07:18
ΜΗ ΠΡΟΣΦΑΤΟ METAR
Μερικώς νεφελώδης
Μερικώς νεφελώδης
 Άνεμος από ΔΒΔ
Άνεμος: ΔΒΔ 6 χΑω
Θερμοκρασία: 10°C
Σημ. Δρόσου: 4°C
Υγρασία: 67%
Βαρόμετρο: 1021 hPa
Σύννεφα: Μερικώς νεφελώδης
Ορατότητα: 9 χλμ
Ανάλυση νέφωσης: Μερικώς νεφελώδης 671μ
2018/09/28 04:18 1033 280418Z 29203KT 9000 SCT022 10/04 Q1021
(Ι.Μ.Σ.)  Φίλυρο  (Σταθμός:1197)
Πυλαία Χορτιάτης - Θεσσαλονίκη - Κ. Μακεδονία
Γ.Πλάτ: 40.69 - Γ.Μήκ: 23.00 - Υψόμ: 400μ
Απόσταση από το Vouhead Weather: (ΒΒΑ) 14χλμ
Ενημερώθηκε: 12/04/2016 18:35
ΜΗ ΠΡΟΣΦΑΤΟ METAR
Αίθριος
Αίθριος
 Άνεμος από Β
Άνεμος: Β 9 χΑω
Θερμοκρασία: 28°C
Σημ. Δρόσου: 8°C
Υγρασία: 28%
Βαρόμετρο: 1011 hPa
Σύννεφα: Αίθριος
Ορατότητα: 10 χλμ
2016/04/12 15:35 1197 121535Z 36005KT 9999 SKC 28/08 Q1011
 
(Ι.Μ.Σ.)  Ωραιόκαστρο  (Σταθμός:1251)
Ωραιόκαστρο - Θεσσαλονίκη - Κ. Μακεδονία
Γ.Πλάτ: 40.72 - Γ.Μήκ: 22.92 - Υψόμ: 240μ
Απόσταση από το Vouhead Weather: (ΒΒΔ) 18χλμ
Ενημερώθηκε: 10/12/2018 21:49
Μερικώς νεφελώδης
Μερικώς νεφελώδης
 Άνεμος από Β
Άνεμος: Β 17 χΑω
Θερμοκρασία: 6°C
Ψυχρότητα Ανέμου: 3°C
Σημ. Δρόσου: 2°C
Υγρασία: 76%
Βαρόμετρο: 1009 hPa
Σύννεφα: Μερικώς νεφελώδης
Ορατότητα: 9 χλμ
Ανάλυση νέφωσης: Μερικώς νεφελώδης 518μ
2018/12/10 19:49 1251 101949Z 36009KT 9000 SCT017 06/02 Q1009
(Ε.Α.Α.)  LGA5 - Λαγκαδάς  (Σταθμός:1127)
Λαγκαδάς - Θεσσαλονίκη - Κ. Μακεδονία
Γ.Πλάτ: 40.75 - Γ.Μήκ: 23.07 - Υψόμ: 87μ
Απόσταση από το Vouhead Weather: (ΒΒΑ) 22χλμ
Ενημερώθηκε: 02/11/2017 14:04
ΜΗ ΠΡΟΣΦΑΤΟ METAR
Αίθριος
Αίθριος
 Άνεμος από calm
Άνεμος: Απνοια
Θερμοκρασία: 16°C
Σημ. Δρόσου: 5°C
Υγρασία: 48%
Βαρόμετρο: 1020 hPa
Σύννεφα: Αίθριος
Ορατότητα: 10 χλμ
2017/11/02 12:04 1127 021204Z 00000KT 9999 SKC 16/05 Q1020
 
(Ι.Μ.Σ.)  Μακρύγιαλος  (Σταθμός:1324)
Πύδνα Κολινδρός - Πιερία - Κ. Μακεδονία
Γ.Πλάτ: 40.42 - Γ.Μήκ: 22.61 - Υψόμ: 60μ
Απόσταση από το Vouhead Weather: (ΔΝΔ) 35χλμ
Ενημερώθηκε: 10/12/2018 21:49
Διάσπαρτα νέφη
Διάσπαρτα νέφη
 Άνεμος από ΒΒΔ
Άνεμος: ΒΒΔ 7 χΑω
Θερμοκρασία: 9°C
Ψυχρότητα Ανέμου: 8°C
Σημ. Δρόσου: 3°C
Υγρασία: 66%
Βαρόμετρο: 1012 hPa
Σύννεφα: Διάσπαρτα νέφη
Ορατότητα: 10 χλμ
Ανάλυση νέφωσης: Διάσπαρτα νέφη 640μ
2018/12/10 19:49 1324 101949Z 33704KT 9999 FEW021 09/03 Q1012
(Ε.Α.Α.)  LG33 - Πολύγυρος  (Σταθμός:1045)
Πολύγυρος - Χαλκιδική - Κ. Μακεδονία
Γ.Πλάτ: 40.38 - Γ.Μήκ: 23.44 - Υψόμ: 580μ
Απόσταση από το Vouhead Weather: (ΑΝΑ) 44χλμ
Ενημερώθηκε: 02/11/2017 14:04
ΜΗ ΠΡΟΣΦΑΤΟ METAR
Διάσπαρτα νέφη
Διάσπαρτα νέφη
 Άνεμος από ΒΒΔ
Άνεμος: ΒΒΔ 7 χΑω
Θερμοκρασία: 14°C
Σημ. Δρόσου: 4°C
Υγρασία: 51%
Βαρόμετρο: 1020 hPa
Σύννεφα: Διάσπαρτα νέφη
Ορατότητα: 10 χλμ
Ανάλυση νέφωσης: Διάσπαρτα νέφη 1250μ
2017/11/02 12:04 1045 021204Z 33704KT 9999 FEW041 14/04 Q1020
 
(Ι.Μ.Σ.)  Νέα Μουδανιά  (Σταθμός:1393)
Νέα Προποντίδα - Χαλκιδική - Κ. Μακεδονία
Γ.Πλάτ: 40.24 - Γ.Μήκ: 23.28 - Υψόμ: 4μ
Απόσταση από το Vouhead Weather: (ΝΝΑ) 45χλμ
Ενημερώθηκε: 10/12/2018 21:49
Μερικώς νεφελώδης
Μερικώς νεφελώδης
 Άνεμος από ΔΒΔ
Άνεμος: ΔΒΔ 11 χΑω
Θερμοκρασία: 11°C
Σημ. Δρόσου: 6°C
Υγρασία: 72%
Βαρόμετρο: 1010 hPa
Σύννεφα: Μερικώς νεφελώδης
Ορατότητα: 9 χλμ
Ανάλυση νέφωσης: Μερικώς νεφελώδης 701μ
2018/12/10 19:49 1393 101949Z 29206KT 9000 SCT023 11/06 Q1010
(Ε.Α.Α.)  LG42 - Κιλκίς  (Σταθμός:1042)
Κιλκίς - Κιλκίς - Κ. Μακεδονία
Γ.Πλάτ: 41.00 - Γ.Μήκ: 22.87 - Υψόμ: 290μ
Απόσταση από το Vouhead Weather: (ΒΒΔ) 48χλμ
Ενημερώθηκε: 02/11/2017 13:49
ΜΗ ΠΡΟΣΦΑΤΟ METAR
Αίθριος
Αίθριος
 Άνεμος από Δ
Άνεμος: Δ 4 χΑω
Θερμοκρασία: 15°C
Σημ. Δρόσου: 5°C
Υγρασία: 51%
Βαρόμετρο: 1021 hPa
Σύννεφα: Αίθριος
Ορατότητα: 10 χλμ
2017/11/02 11:49 1042 021149Z 27002KT 9999 SKC 15/05 Q1021
 
(Ε.Α.Α.)  LG55 - Δίον  (Σταθμός:1039)
Δίον Όλυμπος - Πιερία - Κ. Μακεδονία
Γ.Πλάτ: 40.19 - Γ.Μήκ: 22.43 - Υψόμ: 50μ
Απόσταση από το Vouhead Weather: (ΝΔ) 60χλμ
Ενημερώθηκε: 02/11/2017 14:04
ΜΗ ΠΡΟΣΦΑΤΟ METAR
Διάσπαρτα νέφη
Διάσπαρτα νέφη
 Άνεμος από ΝΑ
Άνεμος: ΝΑ 4 χΑω
Θερμοκρασία: 16°C
Σημ. Δρόσου: 8°C
Υγρασία: 59%
Βαρόμετρο: 1020 hPa
Σύννεφα: Διάσπαρτα νέφη
Ορατότητα: 10 χλμ
Ανάλυση νέφωσης: Διάσπαρτα νέφη 975μ
2017/11/02 12:04 1039 021204Z 13502KT 9999 FEW032 16/08 Q1020
(Ι.Μ.Σ.)  LGE5 - Βέροια  (Σταθμός:1187)
Βέροια - Ημαθία - Κ. Μακεδονία
Γ.Πλάτ: 40.52 - Γ.Μήκ: 22.21 - Υψόμ: 105μ
Απόσταση από το Vouhead Weather: (Δ) 65χλμ
Ενημερώθηκε: 10/12/2018 21:49
Διάσπαρτα νέφη
Διάσπαρτα νέφη
 Άνεμος από ΒΑ
Άνεμος: ΒΑ 6 χΑω
Θερμοκρασία: 10°C
Σημ. Δρόσου: 3°C
Υγρασία: 62%
Βαρόμετρο: 1006 hPa
Σύννεφα: Διάσπαρτα νέφη
Ορατότητα: 10 χλμ
Ανάλυση νέφωσης: Διάσπαρτα νέφη 792μ
2018/12/10 19:49 1187 101949Z 04503KT 9999 FEW026 10/03 Q1006
 
(Ι.Μ.Σ.)  Ασπροβάλτα  (Σταθμός:1302)
Βόλβη - Θεσσαλονίκη - Κ. Μακεδονία
Γ.Πλάτ: 40.76 - Γ.Μήκ: 23.72 - Υψόμ: 6μ
Απόσταση από το Vouhead Weather: (ΑΒΑ) 66χλμ
Ενημερώθηκε: 02/11/2017 14:04
ΜΗ ΠΡΟΣΦΑΤΟ METAR
Διάσπαρτα νέφη
Διάσπαρτα νέφη
 Άνεμος από Α
Άνεμος: Α 6 χΑω
Θερμοκρασία: 17°C
Σημ. Δρόσου: 8°C
Υγρασία: 56%
Βαρόμετρο: 1020 hPa
Σύννεφα: Διάσπαρτα νέφη
Ορατότητα: 10 χλμ
Ανάλυση νέφωσης: Διάσπαρτα νέφη 1067μ
2017/11/02 12:04 1302 021204Z 09003KT 9999 FEW035 17/08 Q1020
(Ε.Α.Α.)  LGO9 - Κασσάνδρεια  (Σταθμός:1361)
Κασσάνδρα - Χαλκιδική - Κ. Μακεδονία
Γ.Πλάτ: 40.06 - Γ.Μήκ: 23.43 - Υψόμ: 29μ
Απόσταση από το Vouhead Weather: (ΝΝΑ) 68χλμ
Ενημερώθηκε: 02/11/2017 14:04
ΜΗ ΠΡΟΣΦΑΤΟ METAR
Διάσπαρτα νέφη
Διάσπαρτα νέφη
 Άνεμος από ΝΝΔ
Άνεμος: ΝΝΔ 7 χΑω
Θερμοκρασία: 16°C
Σημ. Δρόσου: 6°C
Υγρασία: 52%
Βαρόμετρο: 1020 hPa
Σύννεφα: Διάσπαρτα νέφη
Ορατότητα: 10 χλμ
Ανάλυση νέφωσης: Διάσπαρτα νέφη 1250μ
2017/11/02 12:04 1361 021204Z 20204KT 9999 FEW041 16/06 Q1020
 
(Ε.Α.Α.)  LGJ1 - Στρατώνι  (Σταθμός:1288)
Αριστοτέλης - Χαλκιδική - Κ. Μακεδονία
Γ.Πλάτ: 40.51 - Γ.Μήκ: 23.83 - Υψόμ: 5μ
Απόσταση από το Vouhead Weather: (Α) 72χλμ
Ενημερώθηκε: 02/11/2017 14:04
ΜΗ ΠΡΟΣΦΑΤΟ METAR
Μερικώς νεφελώδης
Μερικώς νεφελώδης
 Άνεμος από calm
Άνεμος: Απνοια
Θερμοκρασία: 14°C
Σημ. Δρόσου: 8°C
Υγρασία: 67%
Βαρόμετρο: 1020 hPa
Σύννεφα: Μερικώς νεφελώδης
Ορατότητα: 9 χλμ
Ανάλυση νέφωσης: Μερικώς νεφελώδης 701μ
2017/11/02 12:04 1288 021204Z 00000KT 9000 SCT023 14/08 Q1020
(Ε.Α.Α.)  LGD9 - Κερκίνη  (Σταθμός:1176)
Σιντίκη - Σέρρες - Κ. Μακεδονία
Γ.Πλάτ: 41.22 - Γ.Μήκ: 23.08 - Υψόμ: 115μ
Απόσταση από το Vouhead Weather: (ΒΒΑ) 73χλμ
Ενημερώθηκε: 02/11/2017 14:04
ΜΗ ΠΡΟΣΦΑΤΟ METAR
Διάσπαρτα νέφη
Διάσπαρτα νέφη
 Άνεμος από ΑΒΑ
Άνεμος: ΑΒΑ 2 χΑω
Θερμοκρασία: 14°C
Σημ. Δρόσου: 5°C
Υγρασία: 55%
Βαρόμετρο: 1020 hPa
Σύννεφα: Διάσπαρτα νέφη
Ορατότητα: 10 χλμ
Ανάλυση νέφωσης: Διάσπαρτα νέφη 1036μ
2017/11/02 12:04 1176 021204Z 06701KT 9999 FEW034 14/05 Q1020
 
(Ι.Μ.Σ.)  Σέρρες  (Σταθμός:1390)
Σέρρες - Σέρρες - Κ. Μακεδονία
Γ.Πλάτ: 41.08 - Γ.Μήκ: 23.55 - Υψόμ: 34μ
Απόσταση από το Vouhead Weather: (ΒΑ) 75χλμ
Ενημερώθηκε: 02/11/2017 14:04
ΜΗ ΠΡΟΣΦΑΤΟ METAR
Διάσπαρτα νέφη
Διάσπαρτα νέφη
 Άνεμος από ΝΔ
Άνεμος: ΝΔ 4 χΑω
Θερμοκρασία: 16°C
Σημ. Δρόσου: 6°C
Υγρασία: 52%
Βαρόμετρο: 1021 hPa
Σύννεφα: Διάσπαρτα νέφη
Ορατότητα: 10 χλμ
Ανάλυση νέφωσης: Διάσπαρτα νέφη 1097μ
2017/11/02 12:04 1390 021204Z 22502KT 9999 FEW036 16/06 Q1021
(Ε.Α.Α.)  LG40 - Νάουσα  (Σταθμός:1043)
Νάουσα - Ημαθία - Κ. Μακεδονία
Γ.Πλάτ: 40.63 - Γ.Μήκ: 22.07 - Υψόμ: 365μ
Απόσταση από το Vouhead Weather: (ΔΒΔ) 77χλμ
Ενημερώθηκε: 02/11/2017 14:04
ΜΗ ΠΡΟΣΦΑΤΟ METAR
Διάσπαρτα νέφη
Διάσπαρτα νέφη
 Άνεμος από calm
Άνεμος: Απνοια
Θερμοκρασία: 14°C
Σημ. Δρόσου: 5°C
Υγρασία: 55%
Βαρόμετρο: 1021 hPa
Σύννεφα: Διάσπαρτα νέφη
Ορατότητα: 10 χλμ
Ανάλυση νέφωσης: Διάσπαρτα νέφη 1097μ
2017/11/02 12:04 1043 021204Z 00000KT 9999 FEW036 14/05 Q1021
 
(Ε.Α.Α.)  LG87 - Σέλι  (Σταθμός:1048)
(Χιονοδρομικό Κέντρο)
Βέροια - Ημαθία - Κ. Μακεδονία
Γ.Πλάτ: 40.54 - Γ.Μήκ: 22.01 - Υψόμ: 1510μ
Απόσταση από το Vouhead Weather: (Δ) 82χλμ
Ενημερώθηκε: 31/10/2017 13:34
ΜΗ ΠΡΟΣΦΑΤΟ METAR
Μερικώς νεφελώδης
Μερικώς νεφελώδης
 Άνεμος από ΑΝΑ
Άνεμος: ΑΝΑ 2 χΑω
Θερμοκρασία: 4°C
Σημ. Δρόσου: -2°C
Υγρασία: 65%
Βαρόμετρο: 1024 hPa
Σύννεφα: Μερικώς νεφελώδης
Ορατότητα: 10 χλμ
Ανάλυση νέφωσης: Μερικώς νεφελώδης 671μ
2017/10/31 11:34 1048 311134Z 11201KT 9999 SCT022 04/M02 Q1024
(Ε.Α.Α.)  LGE8 - 3-5 Πηγάδια  (Σταθμός:1194)
(Χιονοδρομικό Κέντρο)
Νάουσα - Ημαθία - Κ. Μακεδονία
Γ.Πλάτ: 40.64 - Γ.Μήκ: 21.97 - Υψόμ: 1430μ
Απόσταση από το Vouhead Weather: (ΔΒΔ) 85χλμ
Ενημερώθηκε: 08/04/2017 20:04
ΜΗ ΠΡΟΣΦΑΤΟ METAR
Μερικώς νεφελώδης
Μερικώς νεφελώδης
 Άνεμος από ΒΒΑ
Άνεμος: ΒΒΑ 4 χΑω
Θερμοκρασία: 7°C
Σημ. Δρόσου: 2°C
Υγρασία: 71%
Βαρόμετρο: 1020 hPa
Σύννεφα: Μερικώς νεφελώδης
Ορατότητα: 9 χλμ
Ανάλυση νέφωσης: Μερικώς νεφελώδης 579μ
2017/04/08 17:04 1194 081704Z 02202KT 9000 SCT019 07/02 Q1020
 
(Ε.Α.Α.)  LGO1 - Αριδαία  (Σταθμός:1270)
Αλμωπία - Πέλλα - C. Macedonia
Γ.Πλάτ: 40.98 - Γ.Μήκ: 22.06 - Υψόμ: 120μ
Απόσταση από το Vouhead Weather: (ΔΒΔ) 89χλμ
Ενημερώθηκε: 02/11/2017 14:04
ΜΗ ΠΡΟΣΦΑΤΟ METAR
Διάσπαρτα νέφη
Διάσπαρτα νέφη
 Άνεμος από ΒΑ
Άνεμος: ΒΑ 2 χΑω
Θερμοκρασία: 16°C
Σημ. Δρόσου: 5°C
Υγρασία: 48%
Βαρόμετρο: 1019 hPa
Σύννεφα: Διάσπαρτα νέφη
Ορατότητα: 10 χλμ
Ανάλυση νέφωσης: Διάσπαρτα νέφη 1280μ
2017/11/02 12:04 1270 021204Z 04501KT 9999 FEW042 16/05 Q1019
(Ε.Α.Α.)  LG** - Λαϊλιάς  (Σταθμός:1359)
(Ορεινό Καταφυγιο)
Σέρρες - Σέρρες - Κ. Μακεδονία
Γ.Πλάτ: 41.26 - Γ.Μήκ: 23.59 - Υψόμ: 1515μ
Απόσταση από το Vouhead Weather: (ΒΑ) 93χλμ
Ενημερώθηκε: 02/11/2017 09:49
ΜΗ ΠΡΟΣΦΑΤΟ METAR
Μερικώς νεφελώδης
Μερικώς νεφελώδης
 Άνεμος από calm
Άνεμος: Απνοια
Θερμοκρασία: 5°C
Σημ. Δρόσου: -1°C
Υγρασία: 66%
Βαρόμετρο: 1025 hPa
Σύννεφα: Μερικώς νεφελώδης
Ορατότητα: 10 χλμ
Ανάλυση νέφωσης: Μερικώς νεφελώδης 701μ
2017/11/02 07:49 1359 020749Z 00000KT 9999 SCT023 05/M01 Q1025
 
(Ι.Μ.Σ.)  Πρώτη  (Σταθμός:1273)
Αμφίπολη - Σέρρες - Κ. Μακεδονία
Γ.Πλάτ: 40.94 - Γ.Μήκ: 24.00 - Υψόμ: 325μ
Απόσταση από το Vouhead Weather: (ΑΒΑ) 96χλμ
Ενημερώθηκε: 10/12/2018 21:49
Νεφοσκεπής
Νεφοσκεπής
 Άνεμος από calm
Άνεμος: Απνοια
Θερμοκρασία: 5°C
Σημ. Δρόσου: 3°C
Υγρασία: 87%
Βαρόμετρο: 1008 hPa
Σύννεφα: Νεφοσκεπής
Ορατότητα: 8 χλμ
Ανάλυση νέφωσης: Νεφοσκεπής 305μ
2018/12/10 19:49 1273 101949Z 00000KT 8000 OVC010 05/03 Q1008
(Ε.Α.Α.)  LG** - (ΔΕΗ) Νότιο Πεδίο  (Σταθμός:1347)
(ΔΕΗ: Δημόσια Επιχείρηση Ηλεκτρισμού)
Εορδαία - Κοζάνη - Δ. Μακεδονία
Γ.Πλάτ: 40.45 - Γ.Μήκ: 21.83 - Υψόμ: 765μ
Απόσταση από το Vouhead Weather: (ΔΝΔ) 98χλμ
Ενημερώθηκε: 02/11/2017 14:04
ΜΗ ΠΡΟΣΦΑΤΟ METAR
Αίθριος
Αίθριος
 Άνεμος από ΝΔ
Άνεμος: ΝΔ 2 χΑω
Θερμοκρασία: 13°C
Σημ. Δρόσου: 4°C
Υγρασία: 55%
Βαρόμετρο: 1021 hPa
Σύννεφα: Αίθριος
Ορατότητα: 10 χλμ
2017/11/02 12:04 1347 021204Z 22501KT 9999 SKC 13/04 Q1021
 
(Ε.Α.Α.)  LG93 - Καϊμάκτσαλαν  (Σταθμός:1101)
(Χιονοδρομικό Κέντρο)
Έδεσσα - Πέλλα - Κ. Μακεδονία
Γ.Πλάτ: 40.94 - Γ.Μήκ: 21.80 - Υψόμ: 2090μ
Απόσταση από το Vouhead Weather: (ΔΒΔ) 107χλμ
Ενημερώθηκε: 02/11/2017 14:04
ΜΗ ΠΡΟΣΦΑΤΟ METAR
Διάσπαρτα νέφη
Διάσπαρτα νέφη
 Άνεμος από ΔΝΔ
Άνεμος: ΔΝΔ 17 χΑω
Θερμοκρασία: 5°C
Ψυχρότητα Ανέμου: 2°C
Σημ. Δρόσου: -2°C
Υγρασία: 61%
Βαρόμετρο: 1022 hPa
Σύννεφα: Διάσπαρτα νέφη
Ορατότητα: 10 χλμ
Ανάλυση νέφωσης: Διάσπαρτα νέφη 884μ
2017/11/02 12:04 1101 021204Z 24709KT 9999 FEW029 05/M02 Q1022
(Ε.Α.Α.)  LGC2 - Μονή Βατοπεδίου  (Σταθμός:1151)
Αγιον Όρος - Χαλκιδική - Κ. Μακεδονία
Γ.Πλάτ: 40.26 - Γ.Μήκ: 24.24 - Υψόμ: 25μ
Απόσταση από το Vouhead Weather: (ΑΝΑ) 108χλμ
Ενημερώθηκε: 02/11/2017 14:04
ΜΗ ΠΡΟΣΦΑΤΟ METAR
Διάσπαρτα νέφη
Διάσπαρτα νέφη
 Άνεμος από ΒΒΔ
Άνεμος: ΒΒΔ 6 χΑω
Θερμοκρασία: 15°C
Σημ. Δρόσου: 9°C
Υγρασία: 68%
Βαρόμετρο: 1019 hPa
Σύννεφα: Διάσπαρτα νέφη
Ορατότητα: 9 χλμ
Ανάλυση νέφωσης: Διάσπαρτα νέφη 701μ
2017/11/02 12:04 1151 021204Z 33703KT 9000 FEW023 15/09 Q1019
 
(Ι.Μ.Σ.)  Παλαιοχώρι  (Σταθμός:1284)
Παγγαίο - Καβάλα - Α. Μακεδονία & Θράκη
Γ.Πλάτ: 40.95 - Γ.Μήκ: 24.18 - Υψόμ: 130μ
Απόσταση από το Vouhead Weather: (ΑΒΑ) 109χλμ
Ενημερώθηκε: 10/12/2018 21:49
Νεφοσκεπής
Νεφοσκεπής
 Άνεμος από calm
Άνεμος: Απνοια
Θερμοκρασία: 4°C
Σημ. Δρόσου: 3°C
Υγρασία: 93%
Βαρόμετρο: 1008 hPa
Σύννεφα: Νεφοσκεπής
Ορατότητα: 7 χλμ
Ανάλυση νέφωσης: Νεφοσκεπής 1829μ
2018/12/10 19:49 1284 101949Z 00000KT 7000 OVC060 04/03 Q1008
(Ε.Α.Α.)  LG26 - Πτολεμαΐδα  (Σταθμός:1046)
Εορδαία - Κοζάνη - Δ. Μακεδονία
Γ.Πλάτ: 40.51 - Γ.Μήκ: 21.68 - Υψόμ: 606μ
Απόσταση από το Vouhead Weather: (Δ) 110χλμ
Ενημερώθηκε: 02/11/2017 14:04
ΜΗ ΠΡΟΣΦΑΤΟ METAR
Αίθριος
Αίθριος
 Άνεμος από ΒΒΔ
Άνεμος: ΒΒΔ 4 χΑω
Θερμοκρασία: 15°C
Σημ. Δρόσου: 4°C
Υγρασία: 48%
Βαρόμετρο: 1019 hPa
Σύννεφα: Αίθριος
Ορατότητα: 10 χλμ
2017/11/02 12:04 1046 021204Z 33702KT 9999 SKC 15/04 Q1019
 
(Ε.Α.Α.)  LGG9 - (ΔΕΗ) Αμύνταιο  (Σταθμός:1220)
(ΔΕΗ: Δημόσια Επιχείρηση Ηλεκτρισμού)
Αμύνταιο - Φλώρινα - Δ. Μακεδονία
Γ.Πλάτ: 40.61 - Γ.Μήκ: 21.66 - Υψόμ: 680μ
Απόσταση από το Vouhead Weather: (Δ) 112χλμ
Ενημερώθηκε: 02/11/2017 14:04
ΜΗ ΠΡΟΣΦΑΤΟ METAR
Αίθριος
Αίθριος
 Άνεμος από ΒΔ
Άνεμος: ΒΔ 4 χΑω
Θερμοκρασία: 14°C
Σημ. Δρόσου: 4°C
Υγρασία: 51%
Βαρόμετρο: 1020 hPa
Σύννεφα: Αίθριος
Ορατότητα: 10 χλμ
2017/11/02 12:04 1220 021204Z 31502KT 9999 SKC 14/04 Q1020
(Ε.Α.Α.)  LG48 - Νευροκόπι  (Σταθμός:1044)
Κάτω Νευροκόπι - Δράμα - Α. Μακεδονία & Θράκη
Γ.Πλάτ: 41.34 - Γ.Μήκ: 23.87 - Υψόμ: 590μ
Απόσταση από το Vouhead Weather: (ΒΑ) 114χλμ
Ενημερώθηκε: 02/11/2017 14:04
ΜΗ ΠΡΟΣΦΑΤΟ METAR
Μερικώς νεφελώδης
Μερικώς νεφελώδης
 Άνεμος από Δ
Άνεμος: Δ 6 χΑω
Θερμοκρασία: 12°C
Σημ. Δρόσου: 5°C
Υγρασία: 63%
Βαρόμετρο: 1020 hPa
Σύννεφα: Μερικώς νεφελώδης
Ορατότητα: 10 χλμ
Ανάλυση νέφωσης: Μερικώς νεφελώδης 884μ
2017/11/02 12:04 1044 021204Z 27003KT 9999 SCT029 12/05 Q1020
 
(Ε.Α.Α.)  LGL6 - Λάρισσα  (Σταθμός:1331)
Λάρισσα - Λάρισσα - Θεσσαλία
Γ.Πλάτ: 39.63 - Γ.Μήκ: 22.40 - Υψόμ: 82μ
Απόσταση από το Vouhead Weather: (ΝΝΔ) 115χλμ
Ενημερώθηκε: 02/11/2017 14:04
ΜΗ ΠΡΟΣΦΑΤΟ METAR
Διάσπαρτα νέφη
Διάσπαρτα νέφη
 Άνεμος από calm
Άνεμος: Απνοια
Θερμοκρασία: 16°C
Σημ. Δρόσου: 6°C
Υγρασία: 52%
Βαρόμετρο: 1020 hPa
Σύννεφα: Διάσπαρτα νέφη
Ορατότητα: 10 χλμ
Ανάλυση νέφωσης: Διάσπαρτα νέφη 1250μ
2017/11/02 12:04 1331 021204Z 00000KT 9999 FEW041 16/06 Q1020
(Ι.Μ.Σ.)  Δράμα  (Σταθμός:1212)
Δράμα - Δράμα - Α. Μακεδονία & Θράκη
Γ.Πλάτ: 41.16 - Γ.Μήκ: 24.10 - Υψόμ: 115μ
Απόσταση από το Vouhead Weather: (ΑΒΑ) 117χλμ
Ενημερώθηκε: 10/12/2018 21:49
Νεφοσκεπής
Νεφοσκεπής
 Άνεμος από calm
Άνεμος: Απνοια
Θερμοκρασία: 4°C
Σημ. Δρόσου: 3°C
Υγρασία: 93%
Βαρόμετρο: 1009 hPa
Σύννεφα: Νεφοσκεπής
Ορατότητα: 6 χλμ
Ανάλυση νέφωσης: Νεφοσκεπής 914μ
2018/12/10 19:49 1212 101949Z 00000KT 6000 OVC030 04/03 Q1009
 
(Ι.Μ.Σ.)  Φαλακρό Όρος  (Σταθμός:1295)
(Χιονοδρομικό Κέντρο)
Προσοτσάνη - Δράμα - Α. Μακεδονία & Θράκη
Γ.Πλάτ: 41.31 - Γ.Μήκ: 24.07 - Υψόμ: 1731μ
Απόσταση από το Vouhead Weather: (ΒΑ) 123χλμ
Ενημερώθηκε: 02/04/2017 16:04
ΜΗ ΠΡΟΣΦΑΤΟ METAR
Διάσπαρτα νέφη
Διάσπαρτα νέφη
 Άνεμος από ΝΝΔ
Άνεμος: ΝΝΔ 17 χΑω
Θερμοκρασία: 7°C
Ψυχρότητα Ανέμου: 4°C
Σημ. Δρόσου: 3°C
Υγρασία: 76%
Βαρόμετρο: 1023 hPa
Σύννεφα: Διάσπαρτα νέφη
Ορατότητα: 9 χλμ
Ανάλυση νέφωσης: Διάσπαρτα νέφη 549μ
2017/04/02 13:04 1295 021304Z 20209KT 9000 FEW018 07/03 Q1023
(Ι.Μ.Σ.)  Φαλακρό Όρος  (Σταθμός:1364)
(Κορυφή Καρτάλκα)
Προσοτσάνη - Δράμα - Α. Μακεδονία & Θράκη
Γ.Πλάτ: 41.30 - Γ.Μήκ: 24.08 - Υψόμ: 2111μ
Απόσταση από το Vouhead Weather: (ΒΑ) 123χλμ
Ενημερώθηκε: 13/03/2014 21:52
ΜΗ ΠΡΟΣΦΑΤΟ METAR
Αίθριος
Αίθριος
 Άνεμος από Β
Άνεμος: Β 22 χΑω
Θερμοκρασία: 28°C
Δείκτης Δυσφορίας: 28°C
Σημ. Δρόσου: 16°C
Υγρασία: 48%
Βαρόμετρο: 999 hPa
Σύννεφα: Αίθριος
Ορατότητα: 10 χλμ
2014/03/13 19:52 1364 131952Z 36012KT 9999 SKC 28/16 Q0999
 
(Ε.Α.Α.)  LGG3 - Ζαγορά  (Σταθμός:1014)
Ζαγορά Μουρέσι - Μαγνησία - Θεσσαλία
Γ.Πλάτ: 39.45 - Γ.Μήκ: 23.10 - Υψόμ: 505μ
Απόσταση από το Vouhead Weather: (Ν) 124χλμ
Ενημερώθηκε: 02/11/2017 14:03
ΜΗ ΠΡΟΣΦΑΤΟ METAR
Διάσπαρτα νέφη
Διάσπαρτα νέφη
 Άνεμος από ΑΝΑ
Άνεμος: ΑΝΑ 4 χΑω
Θερμοκρασία: 12°C
Σημ. Δρόσου: 7°C
Υγρασία: 72%
Βαρόμετρο: 1022 hPa
Σύννεφα: Διάσπαρτα νέφη
Ορατότητα: 9 χλμ
Ανάλυση νέφωσης: Διάσπαρτα νέφη 640μ
2017/11/02 12:03 1014 021203Z 11202KT 9000 FEW021 12/07 Q1022
(Ε.Α.Α.)  LGF0 - Βαρικό  (Σταθμός:1252)
Αμύνταιο - Φλώρινα - Δ. Μακεδονία
Γ.Πλάτ: 40.54 - Γ.Μήκ: 21.50 - Υψόμ: 780μ
Απόσταση από το Vouhead Weather: (Δ) 125χλμ
Ενημερώθηκε: 02/11/2017 14:04
ΜΗ ΠΡΟΣΦΑΤΟ METAR
Αίθριος
Αίθριος
 Άνεμος από ΑΒΑ
Άνεμος: ΑΒΑ 2 χΑω
Θερμοκρασία: 15°C
Σημ. Δρόσου: 5°C
Υγρασία: 51%
Βαρόμετρο: 1021 hPa
Σύννεφα: Αίθριος
Ορατότητα: 10 χλμ
2017/11/02 12:04 1252 021204Z 06701KT 9999 SKC 15/05 Q1021
 
(Ι.Μ.Σ.)  Καβάλα  (Σταθμός:1041)
Καβάλα - Καβάλα - Α. Μακεδονία & Θράκη
Γ.Πλάτ: 40.94 - Γ.Μήκ: 24.40 - Υψόμ: 90μ
Απόσταση από το Vouhead Weather: (ΑΒΑ) 127χλμ
Ενημερώθηκε: 10/12/2018 21:48
Νεφοσκεπής
Νεφοσκεπής
 Άνεμος από ΒΒΔ
Άνεμος: ΒΒΔ 2 χΑω
Θερμοκρασία: 8°C
Σημ. Δρόσου: 5°C
Υγρασία: 82%
Βαρόμετρο: 1008 hPa
Σύννεφα: Νεφοσκεπής
Ορατότητα: 8 χλμ
Ανάλυση νέφωσης: Νεφοσκεπής 427μ
2018/12/10 19:48 1041 101948Z 33701KT 8000 OVC014 08/05 Q1008
(Ε.Α.Α.)  LG** - Κλεισούρα  (Σταθμός:1360)
Καστοριά - Καστοριά - Δ. Μακεδονία
Γ.Πλάτ: 40.54 - Γ.Μήκ: 21.47 - Υψόμ: 1160μ
Απόσταση από το Vouhead Weather: (Δ) 128χλμ
Ενημερώθηκε: 29/10/2017 12:19
ΜΗ ΠΡΟΣΦΑΤΟ METAR
Διάσπαρτα νέφη
Διάσπαρτα νέφη
 Άνεμος από Δ
Άνεμος: Δ 13 χΑω
Θερμοκρασία: 6°C
Ψυχρότητα Ανέμου: 3°C
Σημ. Δρόσου: 1°C
Υγρασία: 71%
Βαρόμετρο: 1011 hPa
Σύννεφα: Διάσπαρτα νέφη
Ορατότητα: 10 χλμ
Ανάλυση νέφωσης: Διάσπαρτα νέφη 640μ
2017/10/29 10:19 1360 291019Z 27007KT 9999 FEW021 06/01 Q1011
 
(Ι.Μ.Σ.)  Χάνια  (Σταθμός:1188)
Βόλος - Μαγνησία - Θεσσαλία
Γ.Πλάτ: 39.39 - Γ.Μήκ: 23.06 - Υψόμ: 1180μ
Απόσταση από το Vouhead Weather: (Ν) 130χλμ
Ενημερώθηκε: 07/03/2014 20:05
ΜΗ ΠΡΟΣΦΑΤΟ METAR
Νεφοσκεπής
Νεφοσκεπής
 Άνεμος από calm
Άνεμος: Απνοια
Θερμοκρασία: 13°C
Σημ. Δρόσου: 9°C
Υγρασία: 77%
Βαρόμετρο: 1015 hPa
Σύννεφα: Νεφοσκεπής
Ορατότητα: 7 χλμ
Ανάλυση νέφωσης: Νεφοσκεπής 366μ
2014/03/07 18:05 1188 071805Z 00000KT 7000 OVC012 13/09 Q1015
(Ι.Μ.Σ.)  Πορταριά  (Σταθμός:1097)
Βόλος - Μαγνησία - Θεσσαλία
Γ.Πλάτ: 39.39 - Γ.Μήκ: 23.00 - Υψόμ: 678μ
Απόσταση από το Vouhead Weather: (Ν) 130χλμ
Ενημερώθηκε: 10/12/2018 21:49
Διάσπαρτα νέφη
Διάσπαρτα νέφη
 Άνεμος από ΒΔ
Άνεμος: ΒΔ 6 χΑω
Θερμοκρασία: 6°C
Σημ. Δρόσου: 2°C
Υγρασία: 76%
Βαρόμετρο: 1007 hPa
Σύννεφα: Διάσπαρτα νέφη
Ορατότητα: 9 χλμ
Ανάλυση νέφωσης: Διάσπαρτα νέφη 457μ
2018/12/10 19:49 1097 101949Z 31503KT 9000 FEW015 06/02 Q1007
 
(Ι.Μ.Σ.)  Βουνοχώρι  (Σταθμός:1235)
Καβάλα - Καβάλα - Α. Μακεδονία & Θράκη
Γ.Πλάτ: 41.07 - Γ.Μήκ: 24.37 - Υψόμ: 830μ
Απόσταση από το Vouhead Weather: (ΑΒΑ) 130χλμ
Ενημερώθηκε: 10/12/2018 21:49
Νεφοσκεπής
Νεφοσκεπής
 Άνεμος από Β
Άνεμος: Β 2 χΑω
Θερμοκρασία: 2°C
Σημ. Δρόσου: 1°C
Υγρασία: 93%
Βαρόμετρο: 1009 hPa
Σύννεφα: Νεφοσκεπής
Ορατότητα: 6 χλμ
Ανάλυση νέφωσης: Νεφοσκεπής 914μ
2018/12/10 19:49 1235 101949Z 36001KT 6000 OVC030 02/01 Q1009
(Ε.Α.Α.)  LG51 - Βόλος  (Σταθμός:1010)
Βόλος - Μαγνησία - Θεσσαλία
Γ.Πλάτ: 39.37 - Γ.Μήκ: 22.96 - Υψόμ: 52μ
Απόσταση από το Vouhead Weather: (Ν) 132χλμ
Ενημερώθηκε: 02/11/2017 14:03
ΜΗ ΠΡΟΣΦΑΤΟ METAR
Αίθριος
Αίθριος
 Άνεμος από ΒΒΔ
Άνεμος: ΒΒΔ 4 χΑω
Θερμοκρασία: 16°C
Σημ. Δρόσου: 5°C
Υγρασία: 48%
Βαρόμετρο: 1020 hPa
Σύννεφα: Αίθριος
Ορατότητα: 10 χλμ
2017/11/02 12:03 1010 021203Z 33702KT 9999 SKC 16/05 Q1020
 
(Ι.Μ.Σ.)  Βόλος(Κέντρο)  (Σταθμός:1318)
Βόλος - Μαγνησία - Θεσσαλία
Γ.Πλάτ: 39.36 - Γ.Μήκ: 22.95 - Υψόμ: 15μ
Απόσταση από το Vouhead Weather: (Ν) 133χλμ
Ενημερώθηκε: 15/01/2017 10:49
ΜΗ ΠΡΟΣΦΑΤΟ METAR
Αίθριος
Αίθριος
 Άνεμος από ΒΒΔ
Άνεμος: ΒΒΔ 2 χΑω
Θερμοκρασία: 6°C
Σημ. Δρόσου: 3°C
Υγρασία: 81%
Βαρόμετρο: 1015 hPa
Σύννεφα: Αίθριος
Ορατότητα: 8 χλμ
2017/01/15 08:49 1318 150849Z 33701KT 8000 SKC 06/03 Q1015
(Ε.Α.Α.)  LG63 - Φλώρινα  (Σταθμός:1049)
Φλώρινα - Φλώρινα - Δ. Μακεδονία
Γ.Πλάτ: 40.78 - Γ.Μήκ: 21.41 - Υψόμ: 637μ
Απόσταση από το Vouhead Weather: (ΔΒΔ) 134χλμ
Ενημερώθηκε: 02/11/2017 14:04
ΜΗ ΠΡΟΣΦΑΤΟ METAR
Διάσπαρτα νέφη
Διάσπαρτα νέφη
 Άνεμος από calm
Άνεμος: Απνοια
Θερμοκρασία: 13°C
Σημ. Δρόσου: 4°C
Υγρασία: 55%
Βαρόμετρο: 1021 hPa
Σύννεφα: Διάσπαρτα νέφη
Ορατότητα: 10 χλμ
Ανάλυση νέφωσης: Διάσπαρτα νέφη 1036μ
2017/11/02 12:04 1049 021204Z 00000KT 9999 FEW034 13/04 Q1021
 
(Ε.Α.Α.)  LGF2 - Γρεβενά  (Σταθμός:1198)
(1ο Επαγγελματικό Λύκειο Γρεβενών)
Γρεβενά - Γρεβενά - Δ. Μακεδονία
Γ.Πλάτ: 40.08 - Γ.Μήκ: 21.43 - Υψόμ: 510μ
Απόσταση από το Vouhead Weather: (ΔΝΔ) 142χλμ
Ενημερώθηκε: 02/11/2017 14:04
ΜΗ ΠΡΟΣΦΑΤΟ METAR
Διάσπαρτα νέφη
Διάσπαρτα νέφη
 Άνεμος από calm
Άνεμος: Απνοια
Θερμοκρασία: 15°C
Σημ. Δρόσου: 5°C
Υγρασία: 51%
Βαρόμετρο: 1021 hPa
Σύννεφα: Διάσπαρτα νέφη
Ορατότητα: 10 χλμ
Ανάλυση νέφωσης: Διάσπαρτα νέφη 1128μ
2017/11/02 12:04 1198 021204Z 00000KT 9999 FEW037 15/05 Q1021
(Ε.Α.Α.)  LGC0 - Καστοριά  (Σταθμός:1162)
Καστοριά - Καστοριά - Δ. Μακεδονία
Γ.Πλάτ: 40.50 - Γ.Μήκ: 21.32 - Υψόμ: 623μ
Απόσταση από το Vouhead Weather: (Δ) 144χλμ
Ενημερώθηκε: 02/11/2017 14:04
ΜΗ ΠΡΟΣΦΑΤΟ METAR
Διάσπαρτα νέφη
Διάσπαρτα νέφη
 Άνεμος από ΝΑ
Άνεμος: ΝΑ 2 χΑω
Θερμοκρασία: 13°C
Σημ. Δρόσου: 5°C
Υγρασία: 59%
Βαρόμετρο: 1020 hPa
Σύννεφα: Διάσπαρτα νέφη
Ορατότητα: 10 χλμ
Ανάλυση νέφωσης: Διάσπαρτα νέφη 914μ
2017/11/02 12:04 1162 021204Z 13501KT 9999 FEW030 13/05 Q1020
 
(Ι.Μ.Σ.)  Καλαμπάκα  (Σταθμός:1012)
Καλαμπάκα - Τρίκαλα - Θεσσαλία
Γ.Πλάτ: 39.71 - Γ.Μήκ: 21.62 - Υψόμ: 215μ
Απόσταση από το Vouhead Weather: (ΔΝΔ) 149χλμ
Ενημερώθηκε: 10/11/2018 12:18
ΜΗ ΠΡΟΣΦΑΤΟ METAR
Μερικώς νεφελώδης
Μερικώς νεφελώδης
 Άνεμος από ΒΑ
Άνεμος: ΒΑ 4 χΑω
Θερμοκρασία: 15°C
Σημ. Δρόσου: 4°C
Υγρασία: 48%
Βαρόμετρο: 1017 hPa
Σύννεφα: Μερικώς νεφελώδης
Ορατότητα: 10 χλμ
Ανάλυση νέφωσης: Μερικώς νεφελώδης 1311μ
2018/11/10 10:18 1012 101018Z 04502KT 9999 SCT043 15/04 Q1017
(Ι.Μ.Σ.)  Καρδίτσα  (Σταθμός:1118)
Καρδίτσα - Καρδίτσα - Θεσσαλία
Γ.Πλάτ: 39.37 - Γ.Μήκ: 21.92 - Υψόμ: 100μ
Απόσταση από το Vouhead Weather: (ΝΝΔ) 160χλμ
Ενημερώθηκε: 08/02/2016 23:34
ΜΗ ΠΡΟΣΦΑΤΟ METAR
Αίθριος
Αίθριος
 Άνεμος από ΝΔ
Άνεμος: ΝΔ 2 χΑω
Θερμοκρασία: 7°C
Σημ. Δρόσου: 2°C
Υγρασία: 71%
Βαρόμετρο: 1027 hPa
Σύννεφα: Αίθριος
Ορατότητα: 10 χλμ
2016/02/08 21:34 1118 082134Z 22501KT 9999 SKC 07/02 Q1027
 
(Ι.Μ.Σ.)  Σκιάθος  (Σταθμός:1201)
(Ερασιτεχνικό Αστεροσκοπείο NUNKI)
Σκιάθος - Σποράδες - Θεσσαλία
Γ.Πλάτ: 39.18 - Γ.Μήκ: 23.51 - Υψόμ: 35μ
Απόσταση από το Vouhead Weather: (ΝΝΑ) 161χλμ
Ενημερώθηκε: 10/12/2018 21:49
Μερικώς νεφελώδης
Μερικώς νεφελώδης
 Άνεμος από Β
Άνεμος: Β 22 χΑω
Θερμοκρασία: 12°C
Σημ. Δρόσου: 7°C
Υγρασία: 72%
Βαρόμετρο: 1009 hPa
Σύννεφα: Μερικώς νεφελώδης
Ορατότητα: 9 χλμ
Ανάλυση νέφωσης: Μερικώς νεφελώδης 671μ
2018/12/10 19:49 1201 101949Z 36012KT 9000 SCT022 12/07 Q1009
(Ι.Μ.Σ.)  Πτελεός  (Σταθμός:1016)
Αλμυρός - Μαγνησία - Θεσσαλία
Γ.Πλάτ: 39.05 - Γ.Μήκ: 22.95 - Υψόμ: 125μ
Απόσταση από το Vouhead Weather: (Ν) 168χλμ
Ενημερώθηκε: 01/11/2017 21:18
ΜΗ ΠΡΟΣΦΑΤΟ METAR
Μερικώς νεφελώδης
Μερικώς νεφελώδης
 Άνεμος από ΒΒΑ
Άνεμος: ΒΒΑ 9 χΑω
Θερμοκρασία: 9°C
Ψυχρότητα Ανέμου: 7°C
Σημ. Δρόσου: 2°C
Υγρασία: 62%
Βαρόμετρο: 1024 hPa
Σύννεφα: Μερικώς νεφελώδης
Ορατότητα: 10 χλμ
Ανάλυση νέφωσης: Μερικώς νεφελώδης 823μ
2017/11/01 19:18 1016 011918Z 02205KT 9999 SCT027 09/02 Q1024
 
(Ε.Α.Α.)  LG82 - Βασιλίτσα  (Σταθμός:1005)
(Χιονοδρομικό Κέντρο)
Γρεβενά - Γρεβενά - Δ. Μακεδονία
Γ.Πλάτ: 40.04 - Γ.Μήκ: 21.08 - Υψόμ: 1780μ
Απόσταση από το Vouhead Weather: (ΔΝΔ) 171χλμ
Ενημερώθηκε: 06/07/2017 23:03
ΜΗ ΠΡΟΣΦΑΤΟ METAR
Αίθριος
Αίθριος
 Άνεμος από ΒΑ
Άνεμος: ΒΑ 6 χΑω
Θερμοκρασία: 17°C
Σημ. Δρόσου: 9°C
Υγρασία: 59%
Βαρόμετρο: 1017 hPa
Σύννεφα: Αίθριος
Ορατότητα: 10 χλμ
2017/07/06 20:03 1005 062003Z 04503KT 9999 SKC 17/09 Q1017
(Ε.Α.Α.)  LGE2 - Περτούλι  (Σταθμός:1179)
Πύλη - Τρίκαλα - Θεσσαλία
Γ.Πλάτ: 39.54 - Γ.Μήκ: 21.46 - Υψόμ: 1170μ
Απόσταση από το Vouhead Weather: (ΝΔ) 172χλμ
Ενημερώθηκε: 24/08/2017 18:19
ΜΗ ΠΡΟΣΦΑΤΟ METAR
Μερικώς νεφελώδης
Μερικώς νεφελώδης
 Άνεμος από calm
Άνεμος: Απνοια
Θερμοκρασία: 21°C
Σημ. Δρόσου: 11°C
Υγρασία: 53%
Βαρόμετρο: 1016 hPa
Σύννεφα: Μερικώς νεφελώδης
Ορατότητα: 10 χλμ
Ανάλυση νέφωσης: Μερικώς νεφελώδης 1219μ
2017/08/24 15:19 1179 241519Z 00000KT 9999 SCT040 21/11 Q1016
 
(Ε.Α.Α.)  LG80 - Σκόπελος  (Σταθμός:1018)
Σκόπελος - Σποράδες - Θεσσαλία
Γ.Πλάτ: 39.12 - Γ.Μήκ: 23.73 - Υψόμ: 60μ
Απόσταση από το Vouhead Weather: (ΝΝΑ) 173χλμ
Ενημερώθηκε: 10/12/2018 21:48
Μερικώς νεφελώδης
Μερικώς νεφελώδης
 Άνεμος από Β
Άνεμος: Β 22 χΑω
Θερμοκρασία: 12°C
Σημ. Δρόσου: 7°C
Υγρασία: 72%
Βαρόμετρο: 1010 hPa
Σύννεφα: Μερικώς νεφελώδης
Ορατότητα: 9 χλμ
Ανάλυση νέφωσης: Μερικώς νεφελώδης 671μ
2018/12/10 19:48 1018 101948Z 36012KT 9000 SCT022 12/07 Q1010
(Ε.Α.Α.)  LGC6 - Ξάνθη  (Σταθμός:1156)
(Μονάδα Βιολογικού Καθαρισμού)
Ξάνθη - Ξάνθη - Α. Μακεδονία & Θράκη
Γ.Πλάτ: 41.09 - Γ.Μήκ: 24.88 - Υψόμ: 40μ
Απόσταση από το Vouhead Weather: (ΑΒΑ) 171χλμ
Ενημερώθηκε: 02/11/2017 14:04
ΜΗ ΠΡΟΣΦΑΤΟ METAR
Διάσπαρτα νέφη
Διάσπαρτα νέφη
 Άνεμος από ΔΝΔ
Άνεμος: ΔΝΔ 2 χΑω
Θερμοκρασία: 15°C
Σημ. Δρόσου: 7°C
Υγρασία: 59%
Βαρόμετρο: 1021 hPa
Σύννεφα: Διάσπαρτα νέφη
Ορατότητα: 10 χλμ
Ανάλυση νέφωσης: Διάσπαρτα νέφη 975μ
2017/11/02 12:04 1156 021204Z 24701KT 9999 FEW032 15/07 Q1021
 
(S.R.F.)  Σαμαρίνα  (Σταθμός:1205)
Γρεβενά - Γρεβενά - Δ. Μακεδονία
Γ.Πλάτ: 40.10 - Γ.Μήκ: 21.02 - Υψόμ: 1430μ
Απόσταση από το Vouhead Weather: (ΔΝΔ) 174χλμ
Ενημερώθηκε: 14/09/2017 04:04
ΜΗ ΠΡΟΣΦΑΤΟ METAR
Μερικώς νεφελώδης
Μερικώς νεφελώδης
 Άνεμος από Β
Άνεμος: Β 2 χΑω
Θερμοκρασία: 9°C
Σημ. Δρόσου: 6°C
Υγρασία: 82%
Βαρόμετρο: 767 hPa
Σύννεφα: Μερικώς νεφελώδης
Ορατότητα: 8 χλμ
Ανάλυση νέφωσης: Μερικώς νεφελώδης 427μ
2017/09/14 01:04 1205 140104Z 36001KT 8000 SCT014 09/06 Q0767
(Ε.Α.Α.)  LGN2 - Αλόννησος  (Σταθμός:1345)
Αλόννησος - Σποράδες - Θεσσαλία
Γ.Πλάτ: 39.15 - Γ.Μήκ: 23.87 - Υψόμ: 50μ
Απόσταση από το Vouhead Weather: (ΝΝΑ) 175χλμ
Ενημερώθηκε: 26/10/2017 13:49
ΜΗ ΠΡΟΣΦΑΤΟ METAR
Μερικώς νεφελώδης
Μερικώς νεφελώδης
 Άνεμος από ΒΑ
Άνεμος: ΒΑ 9 χΑω
Θερμοκρασία: 16°C
Σημ. Δρόσου: 12°C
Υγρασία: 77%
Βαρόμετρο: 1027 hPa
Σύννεφα: Μερικώς νεφελώδης
Ορατότητα: 8 χλμ
Ανάλυση νέφωσης: Μερικώς νεφελώδης 488μ
2017/10/26 10:49 1345 261049Z 04505KT 8000 SCT016 16/12 Q1027
 
(Ε.Α.Α.)  LGL7 - Καστανιά  (Σταθμός:1329)
(Λίμνη Πλαστήρα)
Καρδίτσα - Καρδίτσα - Θεσσαλία
Γ.Πλάτ: 39.24 - Γ.Μήκ: 21.79 - Υψόμ: 867μ
Απόσταση από το Vouhead Weather: (ΝΝΔ) 178χλμ
Ενημερώθηκε: 26/06/2017 14:04
ΜΗ ΠΡΟΣΦΑΤΟ METAR
Καταιγίδα, Μερικώς νεφελώδης
Καταιγίδα, Μερικώς νεφελώδης
 Άνεμος από ΒΑ
Άνεμος: ΒΑ 6 χΑω
Θερμοκρασία: 25°C
Σημ. Δρόσου: 18°C
Υγρασία: 65%
Βαρόμετρο: 1007 hPa
Περίληψη: Καταιγίδα
Σύννεφα: Μερικώς νεφελώδης
Ορατότητα: 9 χλμ
Ανάλυση νέφωσης: Μερικώς νεφελώδης 884μ
2017/06/26 11:04 1329 261104Z 04503KT 9000 TS SCT029 25/18 Q1007
(Ε.Α.Α.)  LGL8 - Γράμος  (Σταθμός:1320)
(Ορεινό Καταφυγιο)
Νεστόριο - Καστοριά - Δ. Μακεδονία
Γ.Πλάτ: 40.39 - Γ.Μήκ: 20.84 - Υψόμ: 1385μ
Απόσταση από το Vouhead Weather: (ΔΝΔ) 182χλμ
Ενημερώθηκε: 10/12/2018 21:49
Νεφοσκεπής
Νεφοσκεπής
 Άνεμος από ΔΝΔ
Άνεμος: ΔΝΔ 2 χΑω
Θερμοκρασία: 1°C
Σημ. Δρόσου: -2°C
Υγρασία: 81%
Βαρόμετρο: 1011 hPa
Σύννεφα: Νεφοσκεπής
Ορατότητα: 8 χλμ
Ανάλυση νέφωσης: Νεφοσκεπής 335μ
2018/12/10 19:49 1320 101949Z 24701KT 8000 OVC011 01/M02 Q1011
 
(Ε.Α.Α.)  LGC1 - Σαμοθράκη  (Σταθμός:1174)
Σαμοθράκη - Έβρος - Α. Μακεδονία & Θράκη
Γ.Πλάτ: 40.47 - Γ.Μήκ: 25.48 - Υψόμ: 115μ
Απόσταση από το Vouhead Weather: (Α) 211χλμ
Ενημερώθηκε: 02/11/2017 14:04
ΜΗ ΠΡΟΣΦΑΤΟ METAR
Διάσπαρτα νέφη
Διάσπαρτα νέφη
 Άνεμος από ΒΔ
Άνεμος: ΒΔ 6 χΑω
Θερμοκρασία: 14°C
Σημ. Δρόσου: 7°C
Υγρασία: 63%
Βαρόμετρο: 728 hPa
Σύννεφα: Διάσπαρτα νέφη
Ορατότητα: 10 χλμ
Ανάλυση νέφωσης: Διάσπαρτα νέφη 792μ
2017/11/02 12:04 1150 021204Z 31503KT 9999 FEW026 14/07 Q0728
(Ι.Μ.Σ.)  Κομοτηνή  (Σταθμός:1130)
Κομοτηνή - Ροδόπη - Α. Μακεδονία & Θράκη
Γ.Πλάτ: 41.11 - Γ.Μήκ: 25.40 - Υψόμ: 40μ
Απόσταση από το Vouhead Weather: (ΑΒΑ) 213χλμ
Ενημερώθηκε: 10/12/2018 21:49
Νεφοσκεπής
Νεφοσκεπής
 Άνεμος από ΒΔ
Άνεμος: ΒΔ 4 χΑω
Θερμοκρασία: 10°C
Σημ. Δρόσου: 5°C
Υγρασία: 71%
Βαρόμετρο: 1006 hPa
Σύννεφα: Νεφοσκεπής
Ορατότητα: 9 χλμ
Ανάλυση νέφωσης: Νεφοσκεπής 518μ
2018/12/10 19:49 1130 101949Z 31502KT 9000 OVC017 10/05 Q1006
 
(Ε.Α.Α.)  LGD8 - Αλεξανδρούπολη  (Σταθμός:1174)
Αλεξανδρούπολη - Έβρος - Α. Μακεδονία & Θράκη
Γ.Πλάτ: 40.86 - Γ.Μήκ: 25.87 - Υψόμ: 48μ
Απόσταση από το Vouhead Weather: (ΑΒΑ) 247χλμ
Ενημερώθηκε: 02/11/2017 14:04
ΜΗ ΠΡΟΣΦΑΤΟ METAR
Διάσπαρτα νέφη
Διάσπαρτα νέφη
 Άνεμος από ΝΝΔ
Άνεμος: ΝΝΔ 6 χΑω
Θερμοκρασία: 14°C
Σημ. Δρόσου: 6°C
Υγρασία: 59%
Βαρόμετρο: 1021 hPa
Σύννεφα: Διάσπαρτα νέφη
Ορατότητα: 10 χλμ
Ανάλυση νέφωσης: Διάσπαρτα νέφη 914μ
2017/11/02 12:04 1174 021204Z 20203KT 9999 FEW030 14/06 Q1021
(Ε.Α.Α.)  LGL2 - Μεταξάδες  (Σταθμός:1325)
Διδυμότειχο - Έβρος - Α. Μακεδονία & Θράκη
Γ.Πλάτ: 41.42 - Γ.Μήκ: 26.22 - Υψόμ: 162μ
Απόσταση από το Vouhead Weather: (ΑΒΑ) 289χλμ
Ενημερώθηκε: 02/11/2017 14:04
ΜΗ ΠΡΟΣΦΑΤΟ METAR
Μερικώς νεφελώδης
Μερικώς νεφελώδης
 Άνεμος από ΝΑ
Άνεμος: ΝΑ 2 χΑω
Θερμοκρασία: 14°C
Σημ. Δρόσου: 5°C
Υγρασία: 55%
Βαρόμετρο: 1020 hPa
Σύννεφα: Μερικώς νεφελώδης
Ορατότητα: 10 χλμ
Ανάλυση νέφωσης: Μερικώς νεφελώδης 1036μ
2017/11/02 12:04 1325 021204Z 13501KT 9999 SCT034 14/05 Q1020
 
(Ι.Μ.Σ.)  Διδυμότειχο  (Σταθμός:1202)
Διδυμότειχο - Έβρος - Α. Μακεδονία & Θράκη
Γ.Πλάτ: 41.35 - Γ.Μήκ: 26.50 - Υψόμ: 52μ
Απόσταση από το Vouhead Weather: (ΑΒΑ) 309χλμ
Ενημερώθηκε: 10/12/2018 21:49
Νεφοσκεπής
Νεφοσκεπής
 Άνεμος από Β
Άνεμος: Β 6 χΑω
Θερμοκρασία: 6°C
Σημ. Δρόσου: 5°C
Υγρασία: 93%
Βαρόμετρο: 1007 hPa
Σύννεφα: Νεφοσκεπής
Ορατότητα: 7 χλμ
Ανάλυση νέφωσης: Νεφοσκεπής 2134μ
2018/12/10 19:49 1202 101949Z 36003KT 7000 OVC070 06/05 Q1007
(Ε.Α.Α.)  LG31 - Ορεστιάδα  (Σταθμός:1020)
Ορεστιάδα - Έβρος - Α. Μακεδονία & Θράκη
Γ.Πλάτ: 41.51 - Γ.Μήκ: 26.53 - Υψόμ: 22μ
Απόσταση από το Vouhead Weather: (ΑΒΑ) 316χλμ
Ενημερώθηκε: 02/11/2017 14:03
ΜΗ ΠΡΟΣΦΑΤΟ METAR
Διάσπαρτα νέφη
Διάσπαρτα νέφη
 Άνεμος από Ν
Άνεμος: Ν 4 χΑω
Θερμοκρασία: 14°C
Σημ. Δρόσου: 4°C
Υγρασία: 51%
Βαρόμετρο: 1019 hPa
Σύννεφα: Διάσπαρτα νέφη
Ορατότητα: 10 χλμ
Ανάλυση νέφωσης: Διάσπαρτα νέφη 1128μ
2017/11/02 12:03 1020 021203Z 18002KT 9999 FEW037 14/04 Q1019
Πηγή Αναφορών METAR:  www.metar.gr
   Μην χρησιμοποιήσετε τα στοιχεία για αποφάσεις που αφορούν ζωές και πάσης φύσεως ιδιοκτησίες  
ΠΗΓΑΙΝΕΤΕ ΣΤΗΝ ΙΟΝΙΑ ΠΗΓΑΙΝΕΤΕ ΣΤΗΝ ΡΕΑ ΠΗΓΑΙΝΕΤΕ ΣΤΗΝ ΚΗΦΙΣΙΑ ΠΗΓΑΙΝΕΤΕ ΣΤΗΝ ΣΥΡΟ ΠΗΓΑΙΝΕΤΕ ΣΤΗΝ ΔΕΞΑΜΕΝΗ (BOLTEK) ΠΗΓΑΙΝΕΤΕ ΣΤΗΝ ΔΕΞΑΜΕΝΗ (LR) Γενική Γραμματεία Πολιτικής Προστασίας Ενιαίος Ευρωπαϊκός Αριθμός Έκτακτης Ανάγκης Βίντεο για το Καστελλόριζο(Μεγίστη) από τα αρχεία της ΕΡΤ Ιστοσελίδα Δήμου Μεγίστης Δείτε το μεγαλύτερο